This demonstration page uses our WeatherBlox Daily Observations layout. Learn more.

Left ArrowRight Arrow

Hourly Observations for December 9, 2022

Temp ( °F °C ) Dew Point ( °F °C ) Humidity (%) Winds ( mph kmh ) Pressure ( in mb ) Visibility ( mi km ) Precip ( " mm )
12:53 am 00:53 Clear 50 10 48 8.9 93 93 N 6 9 30.08 1019 10 16 0.00 0.00
1:53 am 01:53 Clear 49 9.4 47 8.3 93 93 N 7 11 30.06 1018 10 16 0.00 0.00
2:53 am 02:53 Clear 49 9.4 46 7.8 90 90 N 7 11 30.06 1018 10 16 0.00 0.00
3:41 am 03:41 Mostly Cloudy 49 9.4 47 8.3 93 93 N 5 7 30.13 1020 10 16 0.00 0.00
3:53 am 03:53 Mostly Cloudy 50 10 47 8.3 89 89 N 6 9 30.05 1018 10 16 0.00 0.00
4:53 am 04:53 Cloudy 52 11.1 48 8.9 86 86 N 5 7 30.04 1017 10 16 0.00 0.00
5:16 am 05:16 Cloudy 52 11.1 48 8.9 86 86 N 5 7 30.10 1019 10 16 0.00 0.00
5:53 am 05:53 Cloudy 52 11.1 48 8.9 86 86 N 8 13 30.04 1017 10 16 0.00 0.00
6:09 am 06:09 Cloudy 52 11.1 48 8.9 86 86 N 8 13 30.10 1019 10 16 0.00 0.00
6:17 am 06:17 Cloudy 53 11.7 48 8.9 83 83 NNE 7 11 30.08 1019 10 16 0.00 0.00
6:31 am 06:31 Cloudy 53 11.7 48 8.9 83 83 N 8 13 30.08 1019 10 16 0.00 0.00
6:53 am 06:53 Cloudy 54 12.2 48 8.9 80 80 N 6 9 30.04 1017 10 16 0.00 0.00
7:53 am 07:53 Cloudy 54 12.2 48 8.9 80 80 NNE 6 9 30.05 1018 10 16 0.00 0.00
8:53 am 08:53 Cloudy 56 13.3 48 8.9 75 75 NNE 6 9 30.06 1018 10 16 0.00 0.00
9:22 am 09:22 Cloudy 56 13.3 49 9.4 77 77 NE 6 9 30.09 1019 10 16 0.00 0.00
9:32 am 09:32 Cloudy 57 13.9 50 10 77 77 NE 5 7 30.08 1019 10 16 0.00 0.00
9:53 am 09:53 Cloudy with Light Rain 57 13.9 51 10.6 80 80 ENE 5 7 30.07 1018 6 10 0.01 0.13
10:53 am 10:53 Cloudy 58 14.4 52 11.1 81 81 NE 5 7 30.06 1018 9 14 0.01 0.13
11:53 am 11:53 Cloudy with Light Rain 57 13.9 54 12.2 89 89 SSE 3 6 30.04 1017 4 6 0.01 0.25
12:11 pm 12:11 Cloudy with Mist and Fog 58 14.4 55 12.8 90 90 SE 5 7 30.04 1017 5 8 0.01 0.13
12:53 pm 12:53 Cloudy with Mist and Fog 61 16.1 57 13.9 87 87 ESE 6 9 29.99 1016 4 6 0.01 0.13
1:53 pm 13:53 Cloudy with Mist and Fog 62 16.7 58 14.4 86 86 ESE 5 7 29.96 1015 4 6 0.00 0.00
2:04 pm 14:04 Cloudy with Haze 63 17.2 58 14.4 84 84 SSE 3 6 29.94 1014 5 8 0.00 0.00
2:36 pm 14:36 Cloudy with Haze 64 17.8 58 14.4 80 80 S 6 9 29.92 1013 6 10 0.00 0.00
2:53 pm 14:53 Mostly Cloudy with Haze 65 18.3 58 14.4 78 78 S 8 13 29.93 1014 6 10 0.00 0.00
3:53 pm 15:53 Hazy 63 17.2 58 14.4 84 84 Calm 29.92 1013 5 8 0.00 0.00
4:53 pm 16:53 Mostly Cloudy 62 16.7 56 13.3 80 80 N 8 13 29.93 1013 7 11 0.00 0.00
5:53 pm 17:53 Mostly Cloudy 60 15.6 54 12.2 80 80 NNE 5 7 29.93 1014 10 16 0.00 0.00
6:05 pm 18:05 Partly Cloudy 60 15.6 54 12.2 80 80 Calm 29.93 1014 9 14 0.00 0.00
6:53 pm 18:53 Clear 59 15 54 12.2 83 83 SE 3 6 29.93 1014 9 14 0.00 0.00
7:31 pm 19:31 Mostly Cloudy 59 15 55 12.8 87 87 Calm 29.95 1014 8 13 0.00 0.00
7:44 pm 19:44 Partly Cloudy 59 15 55 12.8 87 87 Calm 29.95 1014 8 13 0.00 0.00
7:53 pm 19:53 Mostly Clear 59 15 55 12.8 87 87 Calm 29.95 1014 7 11 0.00 0.00
8:53 pm 20:53 Clear with Mist and Fog 61 16.1 58 14.4 90 90 SE 10 17 29.93 1014 5 8 0.00 0.00
9:53 pm 21:53 Clear with Mist and Fog 60 15.6 58 14.4 93 93 ENE 3 6 29.96 1015 5 8 0.00 0.00
10:53 pm 22:53 Clear with Mist and Fog 60 15.6 58 14.4 93 93 ESE 9 15 29.94 1014 5 8 0.00 0.00
11:21 pm 23:21 Partly Cloudy with Mist and Fog 60 15.6 58 14.4 93 93 ESE 8 13 29.95 1014 5 8 0.00 0.00
11:31 pm 23:31 Mostly Cloudy with Mist and Fog 60 15.6 58 14.4 93 93 SE 9 15 29.95 1014 4 6 0.00 0.00
11:53 pm 23:53 Cloudy with Mist and Fog 59 15 58 14.4 96 96 SE 9 15 29.94 1014 4 6 0.00 0.00

Powered by AerisWeather